Location: Apeadero de Los Molinos-Guadarrama
(40.7091°N, 4.0689°W)
Time: 09:10:45
(UTC+00:00)

Cosmos 1238 Rocket - Pass Details

Date: 14 May 2021
Orbit: 374 x 1021 km, 82.9° (Epoch: 20 June)

Event Time Altitude Azimuth Distance (km) Brightness Sun altitude
Rises 22:43:43 0° 352° (N) 3,587 8.1 -26.9°
Reaches altitude 10° 22:46:24 10° 352° (N) 2,560 7.1 -27.1°
Enters shadow 22:52:03 83° 317° (NW) 795 3.5 -27.6°
